[[{"header":{"parameterUnit":"m.s-1","parameterCategory":1,"la1":30.2991,"la2":30.254,"lo1":-89.0895,"lo2":-89.0444,"dy":0.0017,"dx":0.0017,"nx":28,"ny":28,"refTime":"2024-08-19T09:00:00:Z","depth":0,"parameterNumber":2,"parameterNumberName":"U-component_of_WINDS"},"data":[0,0,0,0,0,0,0,0,0,0,0,0,0,0,0,0,0,0,0,0,0,0,0,0,0,0,0,0,0,0,0,0,0,0,0,0,0,0,0,0,0,0,0,0,0,0,0,0,0,0,0,0,0,0,0,0,0,0,4.2292,4.2293,0,4.2442,4.2443,4.2445,4.2385,4.2381,4.2378,4.2374,4.2531,4.2538,4.2545,0,0,0,0,0,0,0,0,0,0,0,0,0,4.1956,4.1962,4.2292,4.2293,4.2295,4.2441,4.2443,4.2445,4.2385,4.2381,4.2377,4.2373,4.2528,4.2537,4.2546,0,0,0,0,0,0,0,0,0,0,0,0,0,4.2103,4.1964,4.2291,4.2283,4.2284,4.2441,4.2443,4.2446,4.2386,4.2381,4.2376,4.2371,4.2525,4.2536,4.2547,4.2723,0,0,4.2581,4.2586,0,0,0,0,0,0,0,0,4.2095,4.2116,4.2282,4.2284,4.2285,4.2389,4.2382,4.2539,4.2388,4.2347,4.2374,4.2368,4.2488,4.2502,4.2542,4.273,4.2737,4.2582,4.2589,4.2594,4.2597,0,0,0,0,0,0,0,4.2085,4.2109,4.2351,4.2285,4.2286,4.2272,4.2288,4.2412,4.2446,4.235,4.2346,4.2365,4.2488,4.2531,4.2545,4.2739,4.2582,4.2592,4.2599,4.2603,4.3077,4.3083,0,0,0,0,0,0,4.2074,4.2101,4.2346,4.2355,4.2175,4.2283,4.23,4.2361,4.2444,4.2452,4.2369,4.2361,4.2515,4.2532,4.255,4.276,4.2594,4.2604,4.2611,4.3072,4.3079,4.3085,0,0,0,0,0,0,4.2067,4.2096,4.234,4.2227,4.2257,4.2294,4.2364,4.2367,4.241,4.2458,4.2464,4.2407,4.2511,4.2535,4.268,4.2764,4.261,4.262,4.3065,4.3074,4.3082,4.3181,0,0,0,0,0,0,4.2058,4.2094,4.2161,4.2229,4.2263,4.2467,4.2369,4.2373,4.2429,4.242,4.2495,4.2503,4.2509,4.2663,4.2691,4.2777,4.2628,4.3057,4.3069,4.3079,4.317,4.3192,4.3211,0,0,0,0,0,4.2046,4.2183,4.2164,4.2194,4.2347,4.2472,4.2491,4.2494,4.2436,4.2503,4.2534,4.25,4.2751,4.2679,4.2709,4.28,4.3052,4.3066,4.3078,4.3161,4.3188,4.321,0,0,0,0,0,0,4.2125,4.2192,4.2172,4.2335,4.2398,4.2461,4.2546,4.2523,4.2604,4.2592,4.2594,4.2611,4.2761,4.2795,4.2714,4.2974,4.2893,4.2913,4.2945,4.2971,4.2991,4.2979,4.2638,0,0,0,0,0,4.2161,4.2256,4.231,4.2449,4.2482,4.2509,4.2563,4.256,4.2626,4.2652,4.2694,4.2759,4.2852,4.2914,4.3003,4.3176,4.319,4.3253,4.3273,4.329,4.3306,4.3399,4.3427,4.3129,4.3128,4.3128,0,0,4.2238,4.2286,4.2346,4.2467,4.2515,4.2613,4.2531,4.2639,4.2712,4.2669,4.2807,4.2841,4.2914,4.3073,4.3146,4.3107,4.3392,4.3306,4.3319,4.3327,4.3415,4.3444,4.3469,4.3138,4.3136,4.3134,0,0,4.2426,4.2473,4.2593,4.2643,4.2717,4.2734,4.2763,4.283,4.285,4.2989,4.2958,4.3046,4.3207,4.326,4.3308,4.3517,4.3489,4.3546,4.3651,4.3742,4.3765,4.3786,4.3859,4.3885,4.3563,4.3564,4.3564,0,4.2512,4.2658,4.2658,4.2769,4.2822,4.2787,4.2909,4.2957,4.3057,4.3095,4.305,4.325,4.3298,4.3468,4.3519,4.356,4.3593,4.3537,4.3762,4.3783,4.3802,4.3872,4.3899,4.357,4.3569,4.3569,4.3568,0,4.2759,4.2861,4.295,4.3045,4.3109,4.3225,4.3243,4.3308,4.33,4.3322,4.3464,4.352,4.3618,4.3659,4.3653,4.3829,4.3802,4.376,4.3678,4.3837,4.3902,4.3929,4.3579,4.3577,4.3575,4.3573,0,0,4.3,4.3094,4.3127,4.3169,4.3248,4.3327,4.3442,4.3537,4.3592,4.3663,4.3758,4.3895,4.3856,4.3911,4.3911,4.399,4.4151,4.3938,4.3939,4.3974,4.4347,4.4376,4.4407,4.4133,4.4138,4.4142,4.434,0,4.3193,4.3392,4.3396,4.3579,4.3673,4.3641,4.374,4.38,4.3824,4.3908,4.3935,4.4031,4.3973,4.4005,4.4083,4.4115,4.4225,4.4101,4.4221,4.4225,4.4201,4.4442,4.4474,4.4657,4.4365,4.437,4.4373,0,4.3445,4.3521,4.3713,4.3778,4.3817,4.3907,4.3994,4.4075,4.4142,4.4154,4.4215,4.4203,4.432,4.4236,4.4397,4.4312,4.4362,4.4385,4.4393,4.4402,4.4307,4.4456,4.4716,4.4743,4.4414,4.441,4.4408,0,4.3599,4.3751,4.3884,4.3922,4.4002,4.4065,4.4101,4.4163,4.422,4.4297,4.4334,4.4425,4.4474,4.4544,4.4557,4.4495,4.4718,4.4635,4.473,4.473,4.4777,4.4773,4.5047,4.4813,4.4813,4.4812,4.4812,0,4.3813,4.3931,4.3954,4.4037,4.4168,4.4173,4.4303,4.4334,4.439,4.4478,4.4457,4.454,4.4553,4.4639,4.465,4.4781,4.4804,4.4817,4.4818,4.4817,4.4815,4.4848,4.4835,4.482,4.4818,4.4816,4.4815,0,4.4006,4.4027,4.417,4.4234,4.4253,4.4347,4.4401,4.448,4.4502,4.4613,4.464,4.4675,4.4776,4.4795,4.4915,4.4922,4.5078,4.5067,4.5054,4.5052,4.5145,4.5135,4.5447,4.5488,4.523,4.5233,4.5235,0,4.414,4.423,4.4303,4.4359,4.4398,4.4491,4.4548,4.4557,4.4618,4.4701,4.477,4.4868,4.4947,4.5109,4.5146,4.5237,4.5227,4.533,4.5241,4.5237,4.5226,4.5219,4.5228,4.5347,4.535,4.5352,4.5354,0,4.4375,4.438,4.4464,4.4551,4.462,4.469,4.4756,4.4804,4.4822,4.4892,4.4993,4.5055,4.5176,4.5273,4.5365,4.5402,4.5381,4.5382,4.5408,4.5407,4.5395,4.5401,4.5099,4.5374,4.5372,4.5371,4.5369,4.5369,4.4541,4.4619,4.4682,4.4775,4.4826,4.4888,4.4964,4.4996,4.5081,4.5179,4.518,4.5291,4.5356,4.5476,4.552,4.5607,4.5575,4.5614,4.5623,4.5632,4.5639,4.5383,4.5624,4.5624,4.5623,4.5623,4.5623,0,4.4772,4.4811,4.4898,4.499,4.5064,4.5037,4.5109,4.5172,4.527,4.5332,4.541,4.5527,4.5622,4.5666,4.5759,4.582,4.5813,4.5844,4.5839,4.5847,4.5664,4.5631,4.5849,4.5849,4.5849,4.5849,4.5849,4.5849,4.4901,4.5031,4.5044,4.5199,4.5238,4.5345,4.5389,4.5446,4.5495,4.5626,4.5704,4.5732,4.5787,4.5884,4.597,4.598,4.6015,4.605,4.6056,4.5884,4.5861,4.5839,4.5807,4.6059,4.6059,4.6232,4.6233,4.6235]},{"header":{"parameterUnit":"m.s-1","parameterCategory":1,"la1":30.2991,"la2":30.254,"lo1":-89.0895,"lo2":-89.0444,"dy":0.0017,"dx":0.0017,"nx":28,"ny":28,"refTime":"2024-08-19T09:00:00:Z","depth":0,"parameterNumber":3,"parameterNumberName":"V-component_of_WINDS"},"data":[0,0,0,0,0,0,0,0,0,0,0,0,0,0,0,0,0,0,0,0,0,0,0,0,0,0,0,0,0,0,0,0,0,0,0,0,0,0,0,0,0,0,0,0,0,0,0,0,0,0,0,0,0,0,0,0,0,0,2.8395,2.8396,0,2.8534,2.8536,2.8538,2.8542,2.854,2.8538,2.8537,2.868,2.8685,2.8691,0,0,0,0,0,0,0,0,0,0,0,0,0,2.813,2.8134,2.8394,2.8396,2.8398,2.8534,2.8536,2.8538,2.8542,2.854,2.8538,2.8536,2.8678,2.8685,2.8691,0,0,0,0,0,0,0,0,0,0,0,0,0,2.8255,2.8136,2.8394,2.8416,2.842,2.8534,2.8536,2.8539,2.8542,2.854,2.8537,2.8535,2.8676,2.8684,2.8692,2.8793,0,0,2.8717,2.872,0,0,0,0,0,0,0,0,2.8247,2.8264,2.8411,2.8415,2.8419,2.8518,2.8495,2.8624,2.8543,2.8496,2.8536,2.8533,2.8628,2.864,2.8672,2.88,2.8806,2.8717,2.8722,2.8726,2.8728,0,0,0,0,0,0,0,2.8239,2.8258,2.845,2.8413,2.8418,2.8419,2.8434,2.852,2.8575,2.85,2.85,2.8517,2.863,2.8664,2.8675,2.8808,2.8717,2.8724,2.8729,2.8733,2.9025,2.9028,0,0,0,0,0,0,2.8226,2.8251,2.8445,2.8454,2.8325,2.8426,2.8442,2.8489,2.8574,2.8584,2.8519,2.8516,2.8651,2.8666,2.868,2.8804,2.8726,2.8733,2.8738,2.9022,2.9026,2.9029,0,0,0,0,0,0,2.822,2.8243,2.844,2.8353,2.8378,2.8433,2.8485,2.8493,2.8527,2.8588,2.8598,2.8544,2.865,2.8669,2.8765,2.8809,2.8737,2.8744,2.9019,2.9023,2.9027,2.9051,0,0,0,0,0,0,2.8213,2.8241,2.8281,2.8354,2.8382,2.8522,2.8488,2.8497,2.8541,2.8539,2.8614,2.8624,2.8649,2.8753,2.8773,2.8818,2.8751,2.9015,2.9021,2.9026,2.9047,2.9056,2.9064,0,0,0,0,0,2.8203,2.8282,2.8283,2.8306,2.8433,2.8525,2.8541,2.8569,2.8545,2.8585,2.8623,2.8622,2.8801,2.8762,2.8785,2.8834,2.9012,2.9019,2.9025,2.9043,2.9054,2.9064,0,0,0,0,0,0,2.8213,2.8292,2.8293,2.8399,2.8455,2.8525,2.8577,2.858,2.8644,2.864,2.8671,2.8688,2.8783,2.8818,2.8774,2.8936,2.8904,2.8915,2.8909,2.892,2.8929,2.8918,2.8758,0,0,0,0,0,2.8228,2.8296,2.8361,2.8448,2.8476,2.8521,2.8562,2.8578,2.8638,2.8662,2.8708,2.8766,2.8834,2.8879,2.8947,2.9052,2.9068,2.9097,2.9105,2.9112,2.9121,2.9178,2.9191,2.905,2.905,2.905,0,0,2.8258,2.831,2.8351,2.8451,2.8496,2.8566,2.8541,2.8616,2.8668,2.8673,2.8766,2.8802,2.8868,2.8969,2.9016,2.9001,2.9163,2.912,2.9125,2.9131,2.9186,2.9199,2.9211,2.9055,2.9054,2.9053,0,0,2.8349,2.8396,2.8472,2.8518,2.8587,2.8616,2.8635,2.8705,2.8728,2.8822,2.8827,2.8889,2.9007,2.9054,2.9093,2.92,2.9201,2.9221,2.9265,2.932,2.9331,2.9341,2.9378,2.9391,2.923,2.923,2.923,0,2.8379,2.8484,2.8511,2.8586,2.8629,2.8636,2.8714,2.8757,2.8844,2.8873,2.8856,2.9004,2.9049,2.916,2.9186,2.9218,2.9239,2.9213,2.9327,2.9338,2.9347,2.9383,2.9397,2.9232,2.9232,2.9232,2.9232,0,2.8516,2.8588,2.8642,2.8725,2.8774,2.885,2.8888,2.8935,2.8946,2.8977,2.9072,2.9126,2.9204,2.9231,2.9244,2.9344,2.9332,2.9321,2.9289,2.9362,2.9396,2.941,2.9235,2.9234,2.9234,2.9233,0,0,2.8618,2.8714,2.8733,2.8771,2.8847,2.8903,2.8978,2.9054,2.9093,2.9152,2.9216,2.9315,2.9304,2.9349,2.9366,2.9415,2.9494,2.9397,2.9399,2.9412,2.9606,2.9614,2.9629,2.9495,2.9498,2.95,2.96,0,2.8716,2.885,2.8876,2.8993,2.9059,2.9067,2.9132,2.9185,2.9216,2.9277,2.9311,2.938,2.9362,2.9388,2.9436,2.9474,2.9533,2.9467,2.9553,2.9556,2.9536,2.9647,2.9656,2.9748,2.9614,2.9616,2.9618,0,2.8849,2.8911,2.9034,2.91,2.9129,2.9187,2.9257,2.9316,2.9376,2.9395,2.9443,2.9455,2.9533,2.9497,2.9604,2.9558,2.9595,2.9619,2.9623,2.9631,2.9591,2.9658,2.9778,2.9791,2.9639,2.9637,2.9636,0,2.8909,2.9024,2.9112,2.9144,2.9223,2.9264,2.9299,2.9356,2.9399,2.9461,2.9489,2.9559,2.9597,2.965,2.968,2.9651,2.9784,2.9751,2.9801,2.98,2.9828,2.9826,2.9955,2.9853,2.9852,2.9852,2.9852,0,2.9016,2.9091,2.914,2.9194,2.9277,2.9306,2.9388,2.9422,2.9473,2.9533,2.9544,2.96,2.9637,2.9698,2.9721,2.9805,2.9823,2.9839,2.9844,2.9838,2.9836,2.9862,2.9856,2.9856,2.9855,2.9854,2.9854,0,2.9098,2.9134,2.923,2.9297,2.9315,2.9374,2.9431,2.9483,2.9513,2.9589,2.9608,2.9656,2.9728,2.9763,2.9853,2.9869,2.9964,2.9965,2.9943,2.9945,2.9992,2.9987,3.0142,3.0164,3.0048,3.0049,3.005,0,2.9163,2.9221,2.9293,2.9334,2.937,2.9436,2.948,2.951,2.9555,2.9627,2.9671,2.9743,2.9803,2.9918,2.996,3.0029,3.0031,3.0081,3.0042,3.0033,3.0031,3.0027,3.0032,3.0088,3.0089,3.009,3.0091,0,2.9275,2.929,2.9353,2.9422,2.9473,2.9529,2.9584,2.9617,2.9656,2.9706,2.978,2.9826,2.9917,2.9989,3.006,3.0095,3.0099,3.0103,3.0118,3.0111,3.0096,3.0103,2.9961,3.0099,3.0098,3.0098,3.0097,3.0097,2.935,2.9401,2.9459,2.9529,2.9573,2.9624,2.9675,2.9712,2.9774,2.9851,2.9865,2.9943,3.0,3.0096,3.0133,3.0194,3.0183,3.0205,3.021,3.0215,3.0217,3.0086,3.0208,3.0207,3.0207,3.0207,3.0207,0,2.9461,2.9499,2.9563,2.9638,2.9693,2.9692,2.9752,2.9797,2.9866,2.9919,2.9977,3.0061,3.0131,3.0178,3.0248,3.0287,3.0291,3.0304,3.0301,3.0309,3.0224,3.0203,3.03,3.03,3.03,3.03,3.03,3.03,2.9525,2.9611,2.9632,2.9739,2.9777,2.9853,2.9887,2.9934,2.9976,3.007,3.0127,3.0157,3.0208,3.0281,3.0344,3.0356,3.0381,3.0395,3.0406,3.0325,3.0315,3.0306,3.0287,3.04,3.04,3.0487,3.0488,3.0488]}]]